Location: Darmstadt
(49.8706°N, 8.6494°E)
Time: 07:26:41
(UTC+01:00)

SL-08 R/B - Pass Details

Date: 31 October 2020
Orbit: 946 x 994 km, 83.0° (Epoch: 03 December)

Event Time Altitude Azimuth Distance (km) Brightness Sun altitude
Rises 18:02:06 0° 351° (N) 3,660 7.5 -9.9°
Reaches altitude 10° 18:04:38 10° 354° (N) 2,703 6.8 -10.3°
Maximum altitude 18:10:48 73° 79° (ENE) 998 4.4 -11.3°
Drops below altitude 10° 18:16:53 10° 164° (SSE) 2,663 6.7 -12.2°
Sets 18:19:22 0° 166° (SSE) 3,602 7.4 -12.6°
